This demonstration page uses our WeatherBlox Daily Observations layout. Learn more.

Left ArrowRight Arrow

44.8408, -93.29828

Hourly Observations for September 27, 2019

Temp ( °F °C ) Dew Point ( °F °C ) Humidity (%) Winds ( mph kmh ) Pressure ( in mb ) Visibility ( mi km ) Precip ( " mm )
12:53 am 00:53 Cloudy 63 17.2 47 8.3 56 56 S 14 22 29.60 1002 10 16 0.00 0.00
1:53 am 01:53 Cloudy 65 18.3 47 8.3 52 52 S 14 22 29.57 1002 10 16 0.00 0.00
2:53 am 02:53 Cloudy 65 18.3 48 8.9 54 54 S 10 17 29.56 1001 10 16 0.00 0.00
3:53 am 03:53 Cloudy 66 18.9 49 9.4 54 54 SW 10 17 29.55 1001 10 16 0.00 0.00
4:53 am 04:53 Cloudy 67 19.4 51 10.6 57 57 WSW 10 17 29.56 1001 10 16 0.00 0.00
5:53 am 05:53 Cloudy 65 18.3 52 11.1 63 63 WSW 10 17 29.57 1001 10 16 0.00 0.00
6:53 am 06:53 Cloudy 64 17.8 52 11.1 65 65 WSW 9 15 29.57 1002 10 16 0.00 0.00
7:53 am 07:53 Cloudy 63 17.2 52 11.1 68 68 W 5 7 29.60 1002 10 16 0.00 0.00
8:53 am 08:53 Cloudy 62 16.7 53 11.7 73 73 NW 5 7 29.59 1002 10 16 0.00 0.00
9:53 am 09:53 Cloudy 62 16.7 54 12.2 75 75 NW 9 15 29.61 1003 10 16 0.00 0.00
10:53 am 10:53 Cloudy 61 16.1 53 11.7 75 75 NW 14 22 29.65 1004 10 16 0.00 0.00
11:53 am 11:53 Cloudy 64 17.8 52 11.1 65 65 WNW 12 19 29.66 1005 10 16 0.00 0.00
12:53 pm 12:53 Mostly Cloudy 64 17.8 52 11.1 65 65 NW 9 15 29.66 1005 10 16 0.00 0.00
1:53 pm 13:53 Mostly Cloudy 63 17.2 53 11.7 70 70 NW 12 19 29.70 1006 10 16 0.00 0.00
2:53 pm 14:53 Cloudy 62 16.7 52 11.1 70 70 NW 12 19 29.71 1006 10 16 0.00 0.00
3:53 pm 15:53 Cloudy 63 17.2 50 10 63 63 NW 12 19 29.72 1007 10 16 0.00 0.00
4:53 pm 16:53 Cloudy 63 17.2 50 10 63 63 NW 14 22 29.75 1007 10 16 0.00 0.00
5:53 pm 17:53 Cloudy 62 16.7 50 10 65 65 NW 12 19 29.77 1008 10 16 0.00 0.00
6:53 pm 18:53 Mostly Cloudy 60 15.6 49 9.4 67 67 NW 14 22 29.80 1009 10 16 0.00 0.00
7:53 pm 19:53 Mostly Cloudy 57 13.9 48 8.9 72 72 NW 10 17 29.85 1011 10 16 0.00 0.00
8:53 pm 20:53 Mostly Cloudy 57 13.9 48 8.9 72 72 NNW 7 11 29.88 1012 10 16 0.00 0.00
9:53 pm 21:53 Mostly Cloudy 55 12.8 48 8.9 77 77 NNW 10 17 29.88 1012 10 16 0.00 0.00
10:53 pm 22:53 Partly Cloudy 55 12.8 47 8.3 74 74 N 12 19 29.91 1013 10 16 0.00 0.00
11:53 pm 23:53 Partly Cloudy 53 11.7 46 7.8 77 77 N 9 15 29.96 1014 10 16 0.00 0.00

Powered by AerisWeather